• In Belarus
  • List of Countries
  • For 7 days
  • Water Temperature
  • Weather Map
  • Weather Widgets
  • user-avatar
    Login

    Hourly Weather Jaen

    Today, 25 January, Saturday

    Time Temperature Precipitation Wind Pressure Humidity
    00:00 +8°C° 0.2 mm 2 mps 713 mmHg 80%
    01:00 +8°C° 0 mm 2 mps 712 mmHg 80%
    02:00 +8°C° 0 mm 2 mps 712 mmHg 81%
    03:00 +7°C° 0 mm 2 mps 712 mmHg 81%
    04:00 +7°C° 0.1 mm 2 mps 712 mmHg 81%
    05:00 +7°C° 0.1 mm 2 mps 712 mmHg 81%
    06:00 +7°C° 0.1 mm 2 mps 712 mmHg 81%
    07:00 +7°C° 0.8 mm 2 mps 712 mmHg 83%
    08:00 +8°C° 0.8 mm 2 mps 712 mmHg 84%
    09:00 +8°C° 0.8 mm 2 mps 713 mmHg 86%
    10:00 +8°C° 0.8 mm 2 mps 713 mmHg 85%
    11:00 +8°C° 0.8 mm 2 mps 713 mmHg 85%
    12:00 +8°C° 0.8 mm 2 mps 713 mmHg 84%
    13:00 +9°C° 0.2 mm 2 mps 712 mmHg 81%
    14:00 +10°C° 0.2 mm 2 mps 712 mmHg 78%
    15:00 +10°C° 0.2 mm 3 mps 712 mmHg 75%
    16:00 +9°C° 1.2 mm 2 mps 712 mmHg 79%
    17:00 +8°C° 1.2 mm 2 mps 712 mmHg 84%
    18:00 +7°C° 1.2 mm 2 mps 712 mmHg 88%
    19:00 +7°C° 0.2 mm 2 mps 712 mmHg 88%
    20:00 +7°C° 0.2 mm 2 mps 712 mmHg 88%
    21:00 +7°C° 0.2 mm 2 mps 713 mmHg 88%
    22:00 +8°C° 0 mm 1 mps 713 mmHg 88%
    23:00 +8°C° 0 mm 1 mps 713 mmHg 88%

    Tomorrow, 26 January, Sunday

    Time Temperature Precipitation Wind Pressure Humidity
    00:00 +8°C° 0 mm 1 mps 713 mmHg 88%
    01:00 +8°C° 0 mm 1 mps 713 mmHg 87%
    02:00 +8°C° 0 mm 1 mps 713 mmHg 87%
    03:00 +9°C° 0 mm 1 mps 713 mmHg 86%
    04:00 +8°C° 0.1 mm 1 mps 713 mmHg 88%
    05:00 +7°C° 0.1 mm 1 mps 714 mmHg 89%
    06:00 +7°C° 0.1 mm 1 mps 714 mmHg 91%
    07:00 +7°C° 0 mm 1 mps 714 mmHg 91%
    08:00 +8°C° 0 mm 1 mps 715 mmHg 90%
    09:00 +8°C° 0 mm 2 mps 716 mmHg 90%
    10:00 +8°C° 0 mm 2 mps 716 mmHg 84%
    11:00 +9°C° 0 mm 2 mps 716 mmHg 79%
    12:00 +10°C° 0 mm 3 mps 716 mmHg 74%
    13:00 +10°C° 0 mm 3 mps 716 mmHg 71%
    14:00 +10°C° 0 mm 3 mps 716 mmHg 68%
    15:00 +11°C° 0 mm 3 mps 716 mmHg 65%
    16:00 +9°C° 0 mm 3 mps 716 mmHg 71%
    17:00 +8°C° 0 mm 2 mps 716 mmHg 78%
    18:00 +8°C° 0 mm 1 mps 716 mmHg 84%
    19:00 +7°C° 0 mm 1 mps 717 mmHg 85%
    20:00 +7°C° 0 mm 1 mps 717 mmHg 86%
    21:00 +7°C° 0 mm 1 mps 717 mmHg 87%
    22:00 +6°C° 0 mm 1 mps 717 mmHg 87%
    23:00 +5°C° 0 mm 0 mps 717 mmHg 88%

    Day after tomorrow, 27 January, Monday

    Time Temperature Precipitation Wind Pressure Humidity
    00:00 +5°C° 0 mm 0 mps 717 mmHg 89%
    01:00 +4°C° 0 mm 0 mps 717 mmHg 89%
    02:00 +4°C° 0 mm 0 mps 717 mmHg 90%
    03:00 +4°C° 0 mm 0 mps 717 mmHg 91%
    04:00 +4°C° 0 mm 0 mps 716 mmHg 91%
    05:00 +4°C° 0 mm 0 mps 716 mmHg 91%
    06:00 +3°C° 0 mm 0 mps 716 mmHg 91%
    07:00 +5°C° 0 mm 0 mps 716 mmHg 87%
    08:00 +6°C° 0 mm 0 mps 717 mmHg 83%
    09:00 +7°C° 0 mm 0 mps 717 mmHg 79%
    10:00 +10°C° 0 mm 1 mps 717 mmHg 73%
    11:00 +11°C° 0 mm 1 mps 717 mmHg 68%
    12:00 +12°C° 0 mm 1 mps 717 mmHg 62%
    13:00 +13°C° 0 mm 2 mps 717 mmHg 61%
    14:00 +13°C° 0 mm 2 mps 716 mmHg 60%
    15:00 +13°C° 0 mm 3 mps 716 mmHg 59%
    16:00 +12°C° 0 mm 2 mps 716 mmHg 66%
    17:00 +10°C° 0 mm 2 mps 716 mmHg 73%
    18:00 +10°C° 0 mm 1 mps 716 mmHg 79%
    19:00 +9°C° 0 mm 1 mps 716 mmHg 82%
    20:00 +9°C° 0 mm 1 mps 716 mmHg 84%
    21:00 +8°C° 0 mm 1 mps 716 mmHg 87%
    22:00 +8°C° 0 mm 1 mps 716 mmHg 87%
    23:00 +8°C° 0 mm 1 mps 716 mmHg 87%

    28 January, Tuesday

    Time Temperature Precipitation Wind Pressure Humidity
    00:00 +8°C° 0 mm 1 mps 716 mmHg 87%
    01:00 +8°C° 0 mm 1 mps 716 mmHg 86%
    02:00 +8°C° 0 mm 1 mps 716 mmHg 85%
    03:00 +8°C° 0 mm 1 mps 716 mmHg 85%
    04:00 +8°C° 0 mm 1 mps 716 mmHg 85%
    05:00 +9°C° 0 mm 1 mps 716 mmHg 85%
    06:00 +9°C° 0 mm 1 mps 716 mmHg 85%
    07:00 +9°C° 0 mm 1 mps 716 mmHg 85%
    08:00 +10°C° 0 mm 1 mps 717 mmHg 84%
    09:00 +11°C° 0 mm 1 mps 717 mmHg 83%
    10:00 +12°C° 0 mm 1 mps 717 mmHg 79%
    11:00 +13°C° 0 mm 1 mps 717 mmHg 76%
    12:00 +14°C° 0 mm 1 mps 717 mmHg 73%
    13:00 +14°C° 0 mm 1 mps 717 mmHg 72%
    14:00 +14°C° 0 mm 2 mps 716 mmHg 71%
    15:00 +15°C° 0 mm 2 mps 716 mmHg 70%
    16:00 +13°C° 0 mm 1 mps 716 mmHg 76%
    17:00 +12°C° 0 mm 1 mps 716 mmHg 82%
    18:00 +11°C° 0 mm 1 mps 715 mmHg 88%
    19:00 +10°C° 0 mm 1 mps 716 mmHg 90%
    20:00 +10°C° 0 mm 1 mps 716 mmHg 92%
    21:00 +9°C° 0 mm 1 mps 716 mmHg 94%
    22:00 +8°C° 0 mm 0 mps 716 mmHg 94%
    23:00 +8°C° 0 mm 0 mps 716 mmHg 94%

    29 January, Wednesday

    Time Temperature Precipitation Wind Pressure Humidity
    00:00 +8°C° 0 mm 0 mps 716 mmHg 95%
    01:00 +8°C° 0 mm 0 mps 716 mmHg 94%
    02:00 +8°C° 0 mm 0 mps 715 mmHg 94%
    03:00 +8°C° 0 mm 0 mps 715 mmHg 94%
    04:00 +7°C° 0 mm 0 mps 715 mmHg 94%
    05:00 +7°C° 0 mm 0 mps 715 mmHg 94%
    06:00 +7°C° 0 mm 0 mps 715 mmHg 94%
    07:00 +8°C° 0 mm 0 mps 715 mmHg 90%
    08:00 +9°C° 0 mm 0 mps 716 mmHg 86%
    09:00 +10°C° 0 mm 0 mps 716 mmHg 82%
    10:00 +11°C° 0 mm 0 mps 716 mmHg 76%
    11:00 +12°C° 0 mm 0 mps 716 mmHg 70%
    12:00 +14°C° 0 mm 1 mps 716 mmHg 64%
    13:00 +15°C° 0 mm 1 mps 715 mmHg 60%
    14:00 +15°C° 0 mm 1 mps 715 mmHg 57%
    15:00 +16°C° 0 mm 2 mps 715 mmHg 54%
    16:00 +14°C° 0 mm 1 mps 715 mmHg 62%
    17:00 +12°C° 0 mm 1 mps 715 mmHg 70%
    18:00 +11°C° 0 mm 1 mps 715 mmHg 78%
    19:00 +11°C° 0 mm 1 mps 715 mmHg 79%
    20:00 +10°C° 0 mm 1 mps 715 mmHg 80%
    21:00 +10°C° 0 mm 1 mps 716 mmHg 80%
    22:00 +9°C° 0 mm 0 mps 715 mmHg 79%
    23:00 +8°C° 0 mm 0 mps 715 mmHg 79%

    30 January, Thursday

    Time Temperature Precipitation Wind Pressure Humidity
    00:00 +8°C° 0 mm 0 mps 715 mmHg 78%
    01:00 +8°C° 0 mm 0 mps 715 mmHg 76%
    02:00 +9°C° 0 mm 1 mps 715 mmHg 73%
    03:00 +8°C° 0 mm 1 mps 715 mmHg 71%
    04:00 +8°C° 0 mm 1 mps 715 mmHg 70%
    05:00 +8°C° 0 mm 1 mps 715 mmHg 69%
    06:00 +8°C° 0 mm 1 mps 715 mmHg 68%
    07:00 +9°C° 0 mm 1 mps 716 mmHg 66%
    08:00 +10°C° 0 mm 1 mps 716 mmHg 64%
    09:00 +11°C° 0 mm 1 mps 717 mmHg 61%
    10:00 +12°C° 0 mm 1 mps 717 mmHg 57%
    11:00 +13°C° 0 mm 1 mps 717 mmHg 53%
    12:00 +14°C° 0 mm 1 mps 717 mmHg 49%
    13:00 +15°C° 0 mm 1 mps 717 mmHg 49%
    14:00 +15°C° 0 mm 2 mps 716 mmHg 48%
    15:00 +16°C° 0 mm 2 mps 716 mmHg 48%
    16:00 +14°C° 0 mm 2 mps 716 mmHg 55%
    17:00 +13°C° 0 mm 1 mps 716 mmHg 63%
    18:00 +11°C° 0 mm 0 mps 716 mmHg 71%
    19:00 +11°C° 0.1 mm 0 mps 717 mmHg 72%
    20:00 +11°C° 0.1 mm 0 mps 717 mmHg 74%
    21:00 +11°C° 0.1 mm 0 mps 717 mmHg 76%
    22:00 +11°C° 0 mm 1 mps 717 mmHg 77%
    23:00 +11°C° 0 mm 1 mps 717 mmHg 78%
    Show more